(122114) = 1998 WG44 = 2000 JB12

Discovered at Socorro on 2000-05-05 by LINEAR.

Orbit

Orbit type: Main Belt

Note: WebGL enabled browser required.

epoch2024-03-31.0
epoch JD2460400.5
perihelion date2024-02-10.15715
perihelion JD2460350.65716
argument of perihelion (°)312.27170
ascending node (°)227.29255
inclination (°)4.87875
eccentricity0.1037250
perihelion distance (AU)2.0403991
Tisserand w.r.t. Jupiter3.6
ΔV w.r.t. Earth (km/sec)9.0
semimajor axis (AU)2.2765324
mean anomaly (°)14.30197
mean daily motion (°/day)0.28694130
aphelion distance (AU)2.513
period (years)3.43
P-vector [x]-0.99800104
P-vector [y]0.03034213
P-vector [z]-0.05543716
Q-vector [x]-0.00939592
Q-vector [y]-0.93869458
Q-vector [z]-0.34462181
absolute magnitude17.01
phase slope0.15
uncertainty0
referenceMPEC 2024-F50
observations used390
oppositions18
arc length (days)9254
first opposition used1998
last opposition used2024
residual rms (arc-secs)0.75
perturbers coarse indicatorM-v
perturbers precise indicator003Ek
first observation date used1998-11-17.0
last observation date used2024-03-19.0
computer nameMPCLINUX
JD of orbit computation2456847.766893
perihelion JD uncertainty (days)8.4092E-05
argument of perihelion uncertainty (°)5.9138E-05
ascending node uncertainty (°)5.4055E-05
inclination uncertainty (°)4.9731E-06
eccentricity uncertainty 4.1742E-08
perihelion distance uncertainty (AU)9.3851E-08
Minimum Orbit Intersection Distances (in AU)
for orbit epoch: 2460400.5, reference: E2024-GD4
Mercury1.63119
Venus1.32796
Earth1.04692
Mars0.4205
Jupiter2.4575
Saturn6.72329
Uranus16.3993
Neptune27.3439

Observations

399 total observations over interval: 1998 11 17.04398 – 2024 03 19.530468
These data are available for download (format description).

Date (UT) J2000 RA J2000 Dec Magn Location Ref
1998 11 17.04398 02 31 24.33 +15 07 31.2 19.8 V 950 – La Palma MPS 67489
1998 11 17.07961 02 31 22.32 +15 07 16.6   950 – La Palma MPS 67489
1998 11 17.11066 02 31 20.53 +15 07 03.8   950 – La Palma MPS 67489
1998 11 17.99179 02 30 31.56 +15 01 07.3 21.0 V 950 – La Palma MPS 67489
1998 11 18.04775 02 30 28.37 +15 00 45.0   950 – La Palma MPS 67489
1998 11 18.09302 02 30 25.77 +15 00 26.5   950 – La Palma MPS 67489
1998 11 22.00270 02 26 57.92 +14 34 47.9 20.2 V 950 – La Palma MPS 69509
1998 11 22.01245 02 26 57.40 +14 34 44.0   950 – La Palma MPS 69509
1998 11 22.02194 02 26 56.89 +14 34 40.3   950 – La Palma MPS 69509
1998 11 26.07180 02 23 41.66 +14 09 38.2 20.2 V 691 – Steward Observatory, Kitt Peak-Spacewatch MPS 69509
1998 11 26.09411 02 23 40.63 +14 09 30.4 20.2 V 691 – Steward Observatory, Kitt Peak-Spacewatch MPS 69509
1998 11 26.11588 02 23 39.31 +14 09 17.8 20.1 V 691 – Steward Observatory, Kitt Peak-Spacewatch MPS 69509
1998 12 09.06715 02 16 05.30 +13 04 29.7 20.8 V 691 – Steward Observatory, Kitt Peak-Spacewatch MPS 69509
1998 12 09.08863 02 16 04.72 +13 04 24.9 20.7 V 691 – Steward Observatory, Kitt Peak-Spacewatch MPS 69509
1998 12 09.10992 02 16 04.21 +13 04 19.9 21.0 V 691 – Steward Observatory, Kitt Peak-Spacewatch MPS 69509
2000 04 30.21631 13 39 46.78 -12 46 13.1 18.5 R 699 – Lowell Observatory-LONEOS MPS 14693
2000 04 30.23532 13 39 45.67 -12 46 03.2   699 – Lowell Observatory-LONEOS MPS 14693
2000 04 30.25435 13 39 44.81 -12 45 53.1   699 – Lowell Observatory-LONEOS MPS 14693
2000 04 30.27335 13 39 43.80 -12 45 43.9   699 – Lowell Observatory-LONEOS MPS 14693
2000 05 05.26854 13 36 01.38 -12 05 18.2 18.5   704 – Lincoln Laboratory ETS, New Mexico MPS 14693
2000 05 05.28128 13 36 00.87 -12 05 12.9 19.7   704 – Lincoln Laboratory ETS, New Mexico MPS 14693
2000 05 05.30656 13 35 59.75 -12 05 01.3 19.1   704 – Lincoln Laboratory ETS, New Mexico MPS 14693
2000 05 07.20657 13 34 43.97 -11 50 21.9 18.6   704 – Lincoln Laboratory ETS, New Mexico MPS 14693
2000 05 07.21618 13 34 43.56 -11 50 17.7 18.8   704 – Lincoln Laboratory ETS, New Mexico MPS 14693
2000 05 07.22579 13 34 43.10 -11 50 13.4 19.0   704 – Lincoln Laboratory ETS, New Mexico MPS 14693
2000 05 07.23541 13 34 42.77 -11 50 08.4 19.0   704 – Lincoln Laboratory ETS, New Mexico MPS 14693
2000 05 07.24503 13 34 42.30 -11 50 04.5 18.9   704 – Lincoln Laboratory ETS, New Mexico MPS 14693
2001 10 15.272500 23 03 49.035 -00 00 38.62 20.87 V 645 – Apache Point-Sloan Digital Sky Survey MPS 155164
2001 10 15.275972 23 03 48.933 -00 00 39.80 21.79   645 – Apache Point-Sloan Digital Sky Survey MPS 155164
2002 12 06.34238 08 49 18.77 +11 14 51.3 21.1 V 291 – LPL/Spacewatch II MPS 69666
2002 12 06.35310 08 49 18.90 +11 14 48.5 21.1 V 291 – LPL/Spacewatch II MPS 69666
2002 12 06.36355 08 49 19.02 +11 14 45.6 21.4 V 291 – LPL/Spacewatch II MPS 69666
2002 12 27.26981 08 46 49.16 +10 02 38.1 19.2 R 699 – Lowell Observatory-LONEOS MPS 69666
2002 12 27.29386 08 46 48.50 +10 02 35.6   699 – Lowell Observatory-LONEOS MPS 69666
2002 12 27.31792 08 46 47.70 +10 02 33.3   699 – Lowell Observatory-LONEOS MPS 69666
2002 12 27.34184 08 46 46.97 +10 02 30.3   699 – Lowell Observatory-LONEOS MPS 69666
2003 01 26.44245 08 21 01.67 +10 22 39.5 21.4   608 – Haleakala-AMOS MPS 71254
2003 01 26.45327 08 21 00.98 +10 22 42.1 21.4   608 – Haleakala-AMOS MPS 71254
2003 01 26.46394 08 21 00.24 +10 22 43.1 20.4   608 – Haleakala-AMOS MPS 71254
2003 02 02.31423 08 13 48.81 +10 45 00.9 18.8   704 – Lincoln Laboratory ETS, New Mexico MPS 71254
2003 02 02.32816 08 13 47.90 +10 45 04.2 18.8   704 – Lincoln Laboratory ETS, New Mexico MPS 71254
2003 02 02.34217 08 13 47.08 +10 45 08.2 19.8   704 – Lincoln Laboratory ETS, New Mexico MPS 71254
2003 02 02.35627 08 13 45.98 +10 45 09.6 19.2   704 – Lincoln Laboratory ETS, New Mexico MPS 71254
2003 02 03.19166 08 12 55.66 +10 48 09.3 19.0 R 699 – Lowell Observatory-LONEOS MPS 73117
2003 02 03.21234 08 12 54.42 +10 48 14.6   699 – Lowell Observatory-LONEOS MPS 73117
2003 02 03.23283 08 12 53.10 +10 48 18.7   699 – Lowell Observatory-LONEOS MPS 73117
2003 02 03.24701 08 12 52.20 +10 48 22.6 19.6   644 – Palomar Mountain/NEAT MPS 71254
2003 02 03.25334 08 12 51.73 +10 48 23.6   699 – Lowell Observatory-LONEOS MPS 73117
2003 02 03.26667 08 12 50.99 +10 48 26.5 19.6   644 – Palomar Mountain/NEAT MPS 71254
2003 02 03.28750 08 12 49.66 +10 48 31.5 20.1   644 – Palomar Mountain/NEAT MPS 71254
2004 06 14.36141 20 37 56.10 -11 32 35.6 20.5 V 691 – Steward Observatory, Kitt Peak-Spacewatch MPS 155164
2004 06 14.38863 20 37 55.54 -11 32 32.4 20.4 V 691 – Steward Observatory, Kitt Peak-Spacewatch MPS 155164
2004 06 14.41583 20 37 54.98 -11 32 28.9 20.4 V 691 – Steward Observatory, Kitt Peak-Spacewatch MPS 155164
2005 10 24.44489 04 16 26.49 +20 40 02.3 20.9 V 691 – Steward Observatory, Kitt Peak-Spacewatch MPS 145797
2005 10 24.46234 04 16 25.88 +20 39 58.5 20.8 V 691 – Steward Observatory, Kitt Peak-Spacewatch MPS 145797
2005 10 24.47977 04 16 25.25 +20 39 54.4 20.8 V 691 – Steward Observatory, Kitt Peak-Spacewatch MPS 145797
2005 11 12.31325 04 01 03.11 +19 13 48.4 20.2 V 691 – Steward Observatory, Kitt Peak-Spacewatch MPS 149165
2005 11 12.33061 04 01 02.00 +19 13 42.9 20.1 V 691 – Steward Observatory, Kitt Peak-Spacewatch MPS 149165
2005 11 12.34797 04 01 00.92 +19 13 37.4 20.0 V 691 – Steward Observatory, Kitt Peak-Spacewatch MPS 149165
2005 11 29.26554 03 42 58.68 +17 39 04.6 19.5 V G96 – Mt. Lemmon Survey MPS 151803
2005 11 29.27225 03 42 58.21 +17 39 02.4 19.5 V G96 – Mt. Lemmon Survey MPS 151803
2005 11 29.27898 03 42 57.78 +17 39 00.4 19.6 V G96 – Mt. Lemmon Survey MPS 151803
2005 11 29.28569 03 42 57.34 +17 38 57.9 19.5 V G96 – Mt. Lemmon Survey MPS 151803
2005 12 01.25858 03 40 54.49 +17 28 02.2 19.2 C 704 – Lincoln Laboratory ETS, New Mexico MPS 294150
2005 12 01.26656 03 40 54.04 +17 28 01.1 19.9 V G96 – Mt. Lemmon Survey MPS 151803
2005 12 01.27209 03 40 53.69 +17 27 58.8 19.9 C 704 – Lincoln Laboratory ETS, New Mexico MPS 294150
2005 12 01.27455 03 40 53.50 +17 27 58.4 19.8 V G96 – Mt. Lemmon Survey MPS 151803
2005 12 01.28260 03 40 53.00 +17 27 55.8 19.9 V G96 – Mt. Lemmon Survey MPS 151803
2005 12 01.28558 03 40 52.90 +17 27 54.3 19.4 C 704 – Lincoln Laboratory ETS, New Mexico MPS 294150
2005 12 01.29062 03 40 52.50 +17 27 53.2 20.0 V G96 – Mt. Lemmon Survey MPS 151803
2005 12 01.31139 03 40 51.30 +17 27 47.4 19.3 C 704 – Lincoln Laboratory ETS, New Mexico MPS 294150
2005 12 04.20134 03 37 57.47 +17 12 11.6 19.7   704 – Lincoln Laboratory ETS, New Mexico MPS 153376
2005 12 04.22667 03 37 55.79 +17 12 03.4 20.1   704 – Lincoln Laboratory ETS, New Mexico MPS 153376
2005 12 04.23947 03 37 55.00 +17 11 58.5 19.7   704 – Lincoln Laboratory ETS, New Mexico MPS 153376
2005 12 04.25231 03 37 54.27 +17 11 54.3 19.9   704 – Lincoln Laboratory ETS, New Mexico MPS 153376
2005 12 29.19881 03 21 14.18 +15 34 48.2 20.4 V G96 – Mt. Lemmon Survey MPS 156364
2005 12 29.20771 03 21 13.96 +15 34 46.7 20.4 V G96 – Mt. Lemmon Survey MPS 156364
2005 12 29.21648 03 21 13.75 +15 34 46.3 20.2 V G96 – Mt. Lemmon Survey MPS 156364
2005 12 29.22565 03 21 13.60 +15 34 44.7 20.5 V G96 – Mt. Lemmon Survey MPS 156364
2006 01 24.14548 03 24 32.18 +15 29 45.6 22.1 V G96 – Mt. Lemmon Survey MPS 160194
2006 01 24.15067 03 24 32.36 +15 29 46.2 21.1 V G96 – Mt. Lemmon Survey MPS 160194
2006 01 24.15588 03 24 32.47 +15 29 46.5 21.5 V G96 – Mt. Lemmon Survey MPS 160194
2006 01 24.16105 03 24 32.68 +15 29 47.0 21.0 V G96 – Mt. Lemmon Survey MPS 160194
2007 04 18.45611 15 53 37.86 -20 33 21.7 19.1 V G96 – Mt. Lemmon Survey MPS 207845
2007 04 18.46594 15 53 37.53 -20 33 19.5 19.2 V G96 – Mt. Lemmon Survey MPS 207845
2007 04 18.47090 15 53 37.39 -20 33 17.7 19.2 V G96 – Mt. Lemmon Survey MPS 207845
2007 05 10.37738 15 36 35.17 -18 27 54.8 19.7 V 691 – Steward Observatory, Kitt Peak-Spacewatch MPS 209974
2007 05 10.39501 15 36 34.10 -18 27 47.6 19.7 V 691 – Steward Observatory, Kitt Peak-Spacewatch MPS 209974
2007 05 10.41263 15 36 33.04 -18 27 40.7 19.7 V 691 – Steward Observatory, Kitt Peak-Spacewatch MPS 209974
2007 05 13.30089 15 33 44.81 -18 08 28.7 18.8   704 – Lincoln Laboratory ETS, New Mexico MPS 209974
